Weather in Pokrovskoye

Russia / Mari El Republic     56°36′13″N   45°42′32″E
temp.,
°C
wind,
m/s
gust,
m/s
humid.,
%
clouds,
%
prec.,
mm/h
press.,
hPa
HPBL,
m
3 march, wed
wed300:00−2wnw499199 0.0 1001702
03:00−4nw51193100 0.3 1002674
06:00−6nw51292100 0.1 1003653
09:00−6nw51191100 0.4 1005644
12:00−4nw5890100 0.1 1006695
15:00−4wnw5889100 0.2 1007823
18:00−5wnw4987100 0.1 1006720
21:00−7wsw3119481 0.1 1005358
4 march, thu
thu400:00−4wsw51294100 0.3 1002663
03:00−3wsw41193100 0.4 1000671
06:00−3wsw5129498 0.2 996783
09:00−2sw5119699 0.6 994691
12:000wnw71397100 4.1 9911170
15:00−1wnw8138184 4.3 9921414
18:00−4w5138894 0.1 995729
21:00−5wnw389594 0.1 998306
5 march, fri
fri500:00−10nw239461 0.0 99927
03:00−11nnw239579 0.0 100173
06:00−15n239538 0.0 100224
09:00−11n129120 0.0 1004138
12:00−6nw12860 0.0 1005464
15:00−5w348536 0.0 1007815
18:00−9wsw239397 0.1 100740
21:00−11wsw239668 0.1 100952
6 march, sat
sat600:00−10sw2496100 0.2 1009104
03:00−10wsw229799 0.3 101034
06:00−11wnw129795 0.1 101024
09:00−11nw369597 0.3 1011288
12:00−10nw359099 0.0 1012605
15:00−10nw4586100 0.1 1011923
18:00−14wnw2393100 0.1 101282
21:00−18wnw239587 0.1 101362
7 march, sun
sun700:00−19w239833 0.0 101241
03:00−20wsw239916 0.0 101131
06:00−20ssw2310034 0.0 100963
09:00−14s499566 0.0 1006304
12:00−10s61293100 0.3 1002740
15:00−7s61193100 1.4 9981028
18:00−6s51194100 1.3 994955
21:00−5s51195100 2.8 991771